DELTA 1 DEB, 14493

Orbit data source: Space-Track

DELTA 1 DEB, 14493 is space debris in LEO originally from a launch on Thu, 14 Jul 1977 UTC launched from the Air Force Eastern Test Range (AFETR). Debris objects in space refer to the collection of defunct objects orbiting the Earth. Examples of debris include non-operational satellites, rocket bodies, and fragments generated from explosions, collisions, or faulty payload assembly.

Loading next visibility...
Identifier
14493, 1977-065FJ
Orbit
LEO
Country
Flag of USUS
Related business
Manufacturer
Unknown
Mission
Spacecraft
Bus & Motor
Unknown
Mass
Unknown
Launch date (UTC)
1977-07-14 (48 years ago)
Launch vehicle
Unknown
Launch site
Air Force Eastern Test Range (AFETR)
Object type
Payload
Rocket body
Debris
Shape & HBR
Unknown shape, 0.1 m
Radar Cross Section
Small (<0.1 m²)

Expand to show TLE details & history
Last TLE update: 18 hours ago

TLE from 18 hours ago
0 DELTA 1 DEB
1 14493U 77065FJ  25351.72678889  .00005364  00000-0  10126-2 0  9997
2 14493  28.9449 128.1856 0562079 157.3551 205.2868 13.93921345206926
Epoch: 2025-12-17T17:26Z
TLE epoch observation values (Epoch: 2025-12-17T17:26:34.560Z)
Latitude
0.00001°
Longitude
139.94911°
Altitude
1,287.769 km
Speed
7.027 km/s
True Right ascension
08h 32m 44s
True Declination
0° 00' 00"
Sunlit
Object was in full shadow at epoch
Visualization orbit readout
Latitude
Unknown
Longitude
Unknown
Altitude
Unknown
Speed
Unknown
Apparent Right ascension
Unknown
Apparent Declination
Unknown
Sunlit
N/A
Visualization observer readout
Local Sidereal Time
10:01:59
Azimuth
Unknown
Elevation
Unknown
Doppler factor
Unknown
Orbital elements
Apogee altitude
1,329.012 km
Perigee altitude
508.714 km
Semi-major axis
7,297 km
Eccentricity
0.05621
Inclination
28.9449°
RAAN
128.1856°
Arg. of periapsis
157.3551°
True anomaly
202.70112°
Mean anomaly
205.2868°
Eccentric anomaly
203.97804°
Mean motion
3.48198 °/min
Orbital period
103.39 mins
BSTAR
0.0010126
Loading maneuver chart data...
Computing Atmospheric mass density...

Documentation

Showing up to 5 results
|